This is the latest recevied weather packets stored in our database for station/object EA7DYY-12. If no packets are shown the sender has not sent any weather packets the latest 10 day(s).
| Time | Temp. | Humidity | Pressure | Rain* | Wind** | Luminosity | Snow |
|---|---|---|---|---|---|---|---|
| 1787860600 | 20.56° C | 54% | 1160 hPa | - | - | - | - |
| 1787859700 | 20.56° C | 54% | 1159.8 hPa | - | - | - | - |
| 1787858800 | 20.56° C | 54% | 1159.6 hPa | - | - | - | - |
| 1787857899 | 20.56° C | 55% | 1159.4 hPa | - | - | - | - |
| 1787856099 | 20.56° C | 55% | 1158.9 hPa | - | - | - | - |
| 1787855199 | 20.56° C | 53% | 1158.8 hPa | - | - | - | - |
| 1787854299 | 21.11° C | 53% | 1158.9 hPa | - | - | - | - |
| 1787853399 | 21.11° C | 53% | 1158.8 hPa | - | - | - | - |
| 1787852499 | 20.56° C | 52% | 1158.7 hPa | - | - | - | - |
| 1787850699 | 21.11° C | 53% | 1158.7 hPa | - | - | - | - |
| 1787849799 | 21.11° C | 53% | 1158.7 hPa | - | - | - | - |
| 1787848899 | 21.11° C | 54% | 1158.6 hPa | - | - | - | - |
| 1787847999 | 21.11° C | 54% | 1158.6 hPa | - | - | - | - |
| 1787847099 | 21.11° C | 54% | 1158.6 hPa | - | - | - | - |
| 1787846199 | 21.11° C | 53% | 1158.5 hPa | - | - | - | - |
| 1787845298 | 21.11° C | 54% | 1158.5 hPa | - | - | - | - |
| 1787843498 | 21.11° C | 55% | 1158.3 hPa | - | - | - | - |
| 1787842598 | 21.11° C | 54% | 1158.3 hPa | - | - | - | - |
| 1787841698 | 21.11° C | 54% | 1158.5 hPa | - | - | - | - |
| 1787840798 | 21.11° C | 56% | 1158.7 hPa | - | - | - | - |
| 1787839898 | 21.11° C | 58% | 1158.7 hPa | - | - | - | - |
| 1787838998 | 21.11° C | 58% | 1158.6 hPa | - | - | - | - |
| 1787838098 | 21.11° C | 60% | 1158.7 hPa | - | - | - | - |
| 1787836298 | 20.56° C | 56% | 1158.6 hPa | - | - | - | - |
| 1787835398 | 20.56° C | 57% | 1158.5 hPa | - | - | - | - |
* Rain since midnight (hover to see other rain measurements)
** Current wind speed in m/s (hover to see current wind gust speed)